TimeCST,TemperatureF,Dew PointF,Humidity,Sea Level PressureIn,VisibilityMPH,Wind Direction,Wind SpeedMPH,Gust SpeedMPH,PrecipitationIn,Events,Conditions,WindDirDegrees,DateUTC
12:53 AM,18.0,10.9,74,30.35,10.0,East,3.5,-,N/A,,Clear,100,2012-11-24 06:53:00
1:53 AM,19.0,12.0,74,30.30,10.0,ESE,4.6,-,N/A,,Clear,110,2012-11-24 07:53:00
2:53 AM,19.0,12.0,74,30.29,10.0,East,5.8,-,N/A,,Clear,90,2012-11-24 08:53:00
3:53 AM,19.9,12.9,74,30.24,10.0,East,4.6,-,N/A,,Clear,100,2012-11-24 09:53:00
4:53 AM,23.0,12.9,65,30.19,10.0,SE,6.9,-,N/A,,Clear,130,2012-11-24 10:53:00
5:53 AM,24.1,14.0,65,30.17,10.0,ESE,6.9,-,N/A,,Clear,120,2012-11-24 11:53:00
6:53 AM,27.0,15.1,61,30.15,10.0,SSE,10.4,-,N/A,,Clear,160,2012-11-24 12:53:00
7:53 AM,26.1,15.1,63,30.13,10.0,SE,9.2,-,N/A,,Clear,130,2012-11-24 13:53:00
8:53 AM,28.0,16.0,61,30.11,10.0,SSE,6.9,-,N/A,,Clear,160,2012-11-24 14:53:00
9:53 AM,33.1,17.1,52,30.08,10.0,South,13.8,-,N/A,,Clear,180,2012-11-24 15:53:00
10:53 AM,36.0,18.0,48,30.05,10.0,South,13.8,-,N/A,,Clear,180,2012-11-24 16:53:00
11:53 AM,39.0,18.0,43,29.99,10.0,South,10.4,-,N/A,,Clear,180,2012-11-24 17:53:00
12:53 PM,45.0,18.0,34,29.94,10.0,SSW,8.1,-,N/A,,Clear,200,2012-11-24 18:53:00
1:53 PM,48.0,19.0,32,29.89,10.0,SSW,8.1,-,N/A,,Clear,200,2012-11-24 19:53:00
2:53 PM,50.0,19.0,29,29.86,10.0,South,8.1,-,N/A,,Clear,180,2012-11-24 20:53:00
3:53 PM,50.0,19.9,31,29.87,10.0,SSW,4.6,-,N/A,,Clear,200,2012-11-24 21:53:00
4:53 PM,48.0,19.9,33,29.87,10.0,Calm,Calm,-,N/A,,Clear,0,2012-11-24 22:53:00
5:53 PM,44.1,21.0,40,29.87,10.0,East,3.5,-,N/A,,Clear,100,2012-11-24 23:53:00
6:53 PM,36.0,19.9,52,29.90,10.0,Calm,Calm,-,N/A,,Clear,0,2012-11-25 00:53:00
7:53 PM,39.0,21.0,49,29.92,10.0,NNW,3.5,-,N/A,,Clear,330,2012-11-25 01:53:00
8:53 PM,37.9,19.9,48,29.93,10.0,NNW,8.1,-,N/A,,Clear,330,2012-11-25 02:53:00
9:53 PM,39.0,21.0,49,29.94,10.0,WNW,3.5,-,N/A,,Clear,290,2012-11-25 03:53:00
10:53 PM,41.0,21.0,45,29.94,10.0,Calm,Calm,-,N/A,,Clear,0,2012-11-25 04:53:00
11:53 PM,34.0,21.0,59,29.95,10.0,WSW,4.6,-,N/A,,Clear,240,2012-11-25 05:53:00